Simultaneous Nadir Overpasses (SNOs) Predictions

Prediction of SNOs between GOES-16 and METOP-C Satellite Orbit:

Table of predicted SNOs for the next 14.0 days since TLE Epoch: 9/8/2019
Index Date Time (GOES-16) GOES-16 Lat,Lon METOP-C Lat,Lon Distance(km) Time Diff (sec)
1 09/08/2019 14:21:06 0.02, -75.20 -0.61, -72.32 327.42 80
2 09/10/2019 02:40:08 -0.00, -75.19 -0.40, -76.93 197.72 80
3 09/11/2019 02:16:48 0.00, -75.20 0.71, -71.93 371.73 80
4 09/12/2019 14:35:40 -0.00, -75.22 0.28, -76.49 145.52 80
5 09/13/2019 14:17:40 -0.00, -75.23 -0.84, -71.50 424.56 80
6 09/15/2019 02:36:41 0.00, -75.23 -0.17, -76.10 98.75 80
7 09/16/2019 02:13:22 0.00, -75.24 0.94, -71.11 471.65 80
8 09/17/2019 14:32:13 -0.01, -75.27 0.05, -75.67 44.71 80
9 09/20/2019 02:30:34 0.01, -75.30 -0.00, -75.27 3.88 80




NCC Satellite Simultaneous Nadir Overpasses (SNOs) Prediction Service
